Rockford, IL

7:43 AM CST on January 18, 2017 (GMT -0600)
Greater Rockford

Weather History for KRFD - April, 2012

Change the Weather History Date:

Sunday, April 8, 2012

  Actual Average Record
Temperature  
Mean Temperature 52 °F 46 °F  
Max Temperature 67 °F 58 °F 85 °F (1931)
Min Temperature 37 °F 35 °F 15 °F (1972)
Degree Days  
Heating Degree Days 13 19  
Month to date heating degree days 107 160  
Since 1 July heating degree days 4901 6024  
Cooling Degree Days 0 0  
Month to date cooling degree days 0 0  
Year to date cooling degree days 36 0  
Moisture  
Dew Point 33 °F    
Average Humidity 55    
Maximum Humidity 89    
Minimum Humidity 21    
Precipitation  
Precipitation T in 0.11 in 1.39 in (1993)
Month to date precipitation 0.14 0.86  
Year to date precipitation 4.77 5.96  
Snow  
Snow 0.00 in 0.10 in 1.30 in (1982)
Month to date snowfall 0.0 0.5  
Since 1 July snowfall 24.3 36.3  
Snow Depth 0.00 in    
Sea Level Pressure  
Sea Level Pressure 30.20 in    
Wind  
Wind Speed 9 mph (WNW)    
Max Wind Speed 28 mph    
Max Gust Speed 36 mph    
Visibility 10 miles    
Events Rain    
T = Trace of Precipitation, MM = Missing Value Source: NWS Daily Summary

Daily Weather History Graph

Daily Weather History Graph

Search for Another Location

Airport or City:

Trip Planner

Search our weather history database for the weather conditions in past years. The results will help you decide how hot, cold, wet, or windy it might be!

Date:

Astronomy

Apr. 08, 2012 Rise Set
Actual Time 6:26 AM CDT 7:30 PM CDT
Civil Twilight 5:57 AM CDT 7:59 PM CDT
Nautical Twilight 5:23 AM CDT 8:33 PM CDT
Astronomical Twilight 4:47 AM CDT 9:09 PM CDT
Moon 10:21 PM CDT (4/8) 7:19 AM CDT (4/8)
Length of Visible Light 14h 01m
Length of Day
13h 04m
Waning Gibbous, 95% of the Moon is Illuminated
Apr 8
Waning Gibbous
Apr 13
Last Quarter
Apr 21
New
Apr 29
First Quarter
May 5
Full

Hourly Weather History & Observations

Time (CDT) Temp. Windchill Dew Point Humidity Pressure Visibility Wind Dir Wind Speed Gust Speed Precip Events Conditions
12:07 AM 48.2 °F - 44.6 °F 87% 30.20 in 10.0 mi WNW 11.5 mph - N/A   Scattered Clouds
12:54 AM 48.0 °F - 44.1 °F 86% 30.22 in 10.0 mi WNW 10.4 mph - N/A   Partly Cloudy
1:54 AM 46.0 °F 43.1 °F 43.0 °F 89% 30.23 in 9.0 mi West 5.8 mph - N/A   Clear
2:54 AM 43.0 °F 39.5 °F 39.9 °F 89% 30.23 in 9.0 mi WNW 5.8 mph - N/A   Clear
3:54 AM 41.0 °F 37.1 °F 37.9 °F 89% 30.25 in 10.0 mi West 5.8 mph - N/A   Clear
4:54 AM 39.9 °F 35.1 °F 35.1 °F 83% 30.26 in 10.0 mi WNW 6.9 mph - N/A   Clear
5:54 AM 39.0 °F 35.7 °F 32.0 °F 76% 30.27 in 10.0 mi WNW 4.6 mph - N/A   Clear
6:54 AM 37.0 °F 34.5 °F 32.0 °F 82% 30.30 in 10.0 mi South 3.5 mph - N/A   Clear
7:54 AM 42.1 °F - 33.1 °F 70% 30.30 in 10.0 mi Calm Calm - N/A   Clear
8:54 AM 48.9 °F - 32.0 °F 52% 30.30 in 10.0 mi NW 6.9 mph - N/A   Clear
9:54 AM 54.0 °F - 30.0 °F 40% 30.32 in 10.0 mi NW 11.5 mph - N/A   Clear
10:54 AM 57.9 °F - 27.0 °F 31% 30.31 in 10.0 mi NW 12.7 mph 18.4 mph N/A   Clear
11:54 AM 61.0 °F - 24.1 °F 24% 30.29 in 10.0 mi WNW 19.6 mph 26.5 mph N/A   Clear
12:54 PM 62.1 °F - 23.0 °F 22% 30.24 in 10.0 mi WNW 13.8 mph 24.2 mph N/A   Clear
1:54 PM 63.0 °F - 25.0 °F 24% 30.21 in 10.0 mi WNW 15.0 mph 28.8 mph N/A   Clear
2:54 PM 64.9 °F - 26.1 °F 23% 30.18 in 10.0 mi NW 16.1 mph 29.9 mph N/A   Mostly Cloudy
3:54 PM 64.9 °F - 27.0 °F 24% 30.14 in 10.0 mi West 17.3 mph 23.0 mph N/A   Mostly Cloudy
4:54 PM 62.1 °F - 27.0 °F 26% 30.12 in 10.0 mi West 15.0 mph 25.3 mph N/A   Mostly Cloudy
5:54 PM 62.1 °F - 26.1 °F 25% 30.14 in 10.0 mi NW 20.7 mph 31.1 mph 0.00 in Rain Light Rain
6:40 PM 57.2 °F - 30.2 °F 36% 30.14 in 10.0 mi North 17.3 mph 31.1 mph 0.00 in   Mostly Cloudy
6:54 PM 57.0 °F - 32.0 °F 39% 30.14 in 10.0 mi North 12.7 mph 23.0 mph 0.00 in   Scattered Clouds
7:54 PM 53.1 °F - 32.0 °F 45% 30.12 in 10.0 mi NNE 4.6 mph - N/A   Partly Cloudy
8:54 PM 48.9 °F - 34.0 °F 56% 30.12 in 10.0 mi SSE 3.5 mph - N/A   Mostly Cloudy
9:54 PM 48.9 °F - 35.1 °F 59% 30.10 in 10.0 mi Calm Calm - N/A   Overcast
10:54 PM 46.4 °F - 37.4 °F 71% 30.09 in 10.0 mi Calm Calm - N/A   Overcast
11:54 PM 48.0 °F - 37.0 °F 66% 30.09 in 10.0 mi ESE 3.5 mph - 0.00 in Rain Light Rain